EA1AHA-13 Weather Reports


time (UTC)temp
C
wind
direction
speed
KPH
gust
KPH
rain 1hr
cm
rain 24hr
cm
rain mn
cm
humidity
%
barometer
mb
20260506220116 12 225 4.8 6.4 0.00 0.13 0.13 89 1012.6
20260506215141 12 225 4.8 9.7 0.00 0.13 0.13 90 1012.5
20260506214116 12 270 1.6 3.2 0.00 0.13 0.13 91 1012.3
20260506213140 12 225 1.6 3.2 0.00 0.13 0.13 91 1012.4
20260506212116 12 0.0 0.0 0.00 0.13 0.13 91 1012.6
20260506211140 12 0.0 0.0 0.03 0.13 0.13 91 1012.5
20260506210116 12 247 1.6 3.2 0.03 0.13 0.13 91 1012.6
20260506205140 12 225 4.8 4.8 0.03 0.13 0.13 91 1012.8
20260506204117 13 225 3.2 4.8 0.05 0.13 0.13 89 1012.8
20260506203141 13 0.0 0.0 0.05 0.13 0.13 89 1012.6
20260506202116 13 67 0.0 1.6 0.05 0.13 0.13 89 1012.6
20260506201141 13 0.0 0.0 0.03 0.10 0.10 88 1012.5
20260506200117 13 0.0 0.0 0.03 0.10 0.10 88 1012.5
20260506195140 13 0.0 0.0 0.05 0.10 0.10 87 1012.4
20260506194116 13 0.0 1.6 0.03 0.08 0.08 87 1012.4
20260506193141 13 112 0.0 3.2 0.03 0.08 0.08 87 1012.3
20260506192117 13 90 0.0 3.2 0.03 0.08 0.08 87 1012.5
20260506191141 13 90 0.0 3.2 0.03 0.08 0.08 87 1012.3
20260506190116 13 90 0.0 3.2 0.03 0.08 0.08 87 1012.5
20260506185140 13 112 4.8 9.7 0.00 0.05 0.05 86 1012.3
20260506184117 14 67 4.8 6.4 0.00 0.05 0.05 84 1012.1
20260506183141 13 0 6.4 9.7 0.00 0.05 0.05 82 1012.2
20260506182116 14 45 4.8 12.9 0.00 0.05 0.05 81 1012.2
20260506181141 14 22 8.0 12.9 0.00 0.05 0.05 81 1012.5
20260506180117 14 337 4.8 6.4 0.00 0.05 0.05 81 1012.3
20260506175141 14 22 8.0 12.9 0.00 0.05 0.05 80 1012.2
20260506174117 15 0 4.8 9.7 0.00 0.05 0.05 80 1012.3
20260506173141 15 0 6.4 9.7 0.00 0.05 0.05 80 1012.4
20260506172118 15 0 1.6 6.4 0.00 0.05 0.05 79 1012.4
20260506171140 15 22 3.2 9.7 0.00 0.05 0.05 79 1012.3
20260506170117 14 337 6.4 9.7 0.00 0.05 0.05 79 1012.5
20260506165141 15 0 6.4 12.9 0.00 0.05 0.05 76 1012.3
20260506164117 15 67 4.8 9.7 0.00 0.05 0.05 75 1012.4
20260506163140 15 270 9.7 14.5 0.00 0.05 0.05 76 1012.1
20260506162117 15 247 4.8 12.9 0.00 0.05 0.05 77 1012.4
20260506161140 15 315 9.7 16.1 0.00 0.05 0.05 75 1012.4
20260506160117 15 337 12.9 16.1 0.00 0.05 0.05 74 1012.0
20260506155141 15 337 12.9 19.3 0.00 0.05 0.05 74 1012.3
20260506154117 15 45 4.8 6.4 0.00 0.05 0.05 71 1012.3
20260506153140 15 22 9.7 12.9 0.00 0.05 0.05 73 1012.5
20260506152117 16 22 3.2 4.8 0.00 0.05 0.05 68 1012.6
20260506151141 15 112 4.8 9.7 0.00 0.05 0.05 68 1012.5
20260506150117 15 337 4.8 14.5 0.00 0.05 0.05 70 1012.8
20260506145140 15 22 9.7 12.9 0.00 0.05 0.05 72 1012.8
20260506144117 15 157 4.8 14.5 0.00 0.05 0.05 68 1012.8
20260506143140 15 337 8.0 16.1 0.00 0.05 0.05 69 1013.0
20260506142116 15 225 6.4 12.9 0.00 0.05 0.05 75 1012.9
20260506141141 15 337 12.9 17.7 0.00 0.05 0.05 75 1013.0
20260506140116 15 337 4.8 12.9 0.00 0.05 0.05 74 1013.1
20260506135141 14 0 19.3 24.1 0.00 0.05 0.05 73 1013.0
20260506134117 14 337 8.0 14.5 0.00 0.05 0.05 75 1013.2
20260506133140 15 315 17.7 24.1 0.00 0.05 0.05 74 1013.3
20260506132117 15 0 8.0 24.1 0.00 0.05 0.05 71 1013.3
20260506131140 15 0 19.3 24.1 0.00 0.05 0.05 72 1013.4
20260506130117 15 337 22.5 27.4 0.00 0.05 0.05 70 1013.2
20260506125140 16 22 16.1 20.9 0.00 0.05 0.05 68 1013.2
20260506124117 16 67 4.8 9.7 0.00 0.05 0.05 65 1013.3
20260506123140 16 337 4.8 16.1 0.00 0.05 0.05 66 1013.4
20260506122116 15 315 8.0 16.1 0.00 0.05 0.05 69 1013.4
20260506121141 16 270 9.7 24.1 0.00 0.05 0.05 68 1013.6
20260506120118 15 22 14.5 19.3 0.00 0.05 0.05 71 1013.2
20260506115140 16 0 4.8 16.1 0.00 0.05 0.05 67 1013.6
20260506114116 15 180 8.0 16.1 0.00 0.05 0.05 68 1013.6
20260506113140 15 0 4.8 9.7 0.00 0.05 0.05 70 1013.7
20260506112117 15 337 4.8 6.4 0.00 0.05 0.05 72 1013.3
20260506111140 15 202 6.4 14.5 0.00 0.05 0.05 73 1013.7
20260506110116 15 0 9.7 19.3 0.00 0.05 0.05 68 1013.6
20260506104812 14 0 12.9 24.1 0.00 0.05 0.05 75 1013.5
20260506103628 15 22 11.3 17.7 0.00 0.05 0.05 73 1013.6
20260506102605 15 315 11.3 17.7 0.00 0.05 0.05 70 1013.8
20260506101629 15 112 4.8 9.7 0.00 0.05 0.05 72 1013.7
20260506100606 15 67 0.0 3.2 0.00 0.05 0.05 71 1013.4
20260506095628 14 270 9.7 12.9 0.00 0.05 0.05 71 1013.6
20260506094605 15 112 6.4 12.9 0.00 0.05 0.05 71 1013.8
20260506093628 14 292 9.7 12.9 0.00 0.05 0.05 73 1013.7
20260506092605 14 270 4.8 9.7 0.00 0.05 0.05 74 1013.6
20260506091629 13 292 6.4 9.7 0.00 0.05 0.05 75 1013.6
20260506090605 13 315 3.2 4.8 0.00 0.05 0.05 76 1013.3
20260506085628 13 270 4.8 6.4 0.00 0.05 0.05 77 1013.3
20260506084605 13 247 8.0 12.9 0.00 0.05 0.05 76 1013.6
20260506083628 13 270 3.2 6.4 0.00 0.05 0.05 79 1013.5
20260506082605 12 270 4.8 6.4 0.00 0.05 0.05 79 1013.8
20260506081629 12 247 4.8 6.4 0.00 0.05 0.05 80 1013.6
20260506080605 12 247 4.8 6.4 0.00 0.05 0.05 79 1013.5
20260506072605 12 270 4.8 6.4 0.00 0.05 0.05 82 1013.6
20260506071628 12 270 4.8 4.8 0.00 0.05 0.05 81 1013.6
20260506070604 11 270 1.6 3.2 0.00 0.05 0.05 81 1013.6
20260506061628 11 270 6.4 9.7 0.00 0.05 0.05 81 1013.3
20260506060605 11 247 4.8 9.7 0.00 0.05 0.05 82 1013.0
20260506050605 10 0.0 0.0 0.00 0.05 0.05 86 1012.7
20260506044604 10 247 0.0 3.2 0.00 0.05 0.05 86 1012.9
20260506043629 10 225 0.0 1.6 0.00 0.05 0.05 86 1012.9
20260506042604 10 0.0 0.0 0.00 0.05 0.05 85 1012.9
20260506041629 10 0.0 1.6 0.00 0.05 0.05 86 1012.9
20260506040604 11 202 8.0 9.7 0.00 0.05 0.05 85 1012.9
20260506035629 11 270 4.8 9.7 0.00 0.05 0.05 85 1013.1
20260506034605 10 0.0 1.6 0.00 0.05 0.05 87 1013.3
20260506033629 10 0.0 1.6 0.00 0.05 0.05 86 1013.4
20260506032604 11 225 0.0 3.2 0.00 0.05 0.05 85 1013.1
20260506031628 11 270 6.4 9.7 0.00 0.05 0.05 84 1013.3
20260506030605 10 247 4.8 6.4 0.00 0.05 0.05 86 1013.2
20260506025629 10 225 3.2 4.8 0.00 0.05 0.05 85 1013.2
20260506024653 10 202 4.8 9.7 0.00 0.05 0.05 87 1013.2
20260506023628 10 225 1.6 3.2 0.00 0.05 0.05 86 1013.1
20260506022604 11 247 4.8 6.4 0.00 0.05 0.05 85 1013.2
20260506021629 11 225 4.8 9.7 0.00 0.05 0.05 86 1013.2
20260506020604 10 270 4.8 6.4 0.00 0.05 0.05 86 1013.3
20260506015628 11 270 4.8 6.4 0.00 0.05 0.05 86 1013.6
20260506014604 11 247 6.4 9.7 0.00 0.05 0.05 85 1013.4
20260506013629 11 270 4.8 9.7 0.00 0.05 0.05 85 1013.4
20260506012605 10 292 4.8 6.4 0.00 0.05 0.05 87 1013.5
20260506011629 10 225 9.7 12.9 0.00 0.05 0.05 88 1013.4
20260506010604 10 225 8.0 14.5 0.03 0.05 0.05 88 1013.7
20260506005628 10 247 8.0 9.7 0.03 0.05 0.05 88 1013.9
20260506004605 10 225 9.7 14.5 0.03 0.05 0.05 89 1013.9
20260506003628 11 225 8.0 14.5 0.03 0.05 0.05 89 1013.9
20260506002605 11 247 3.2 4.8 0.03 0.05 0.05 90 1014.2
20260506001629 11 0.0 0.0 0.03 0.05 0.05 90 1014.3
20260506000605 11 292 4.8 6.4 0.00 0.03 0.03 89 1014.4
20260505235629 11 247 6.4 9.7 0.00 0.03 0.03 89 1014.3
20260505234605 11 225 6.4 9.7 0.00 0.03 0.03 88 1014.4
20260505233629 11 247 9.7 14.5 0.00 0.03 0.03 88 1014.2
20260505232652 11 247 12.9 16.1 0.00 0.03 0.03 88 1014.1
20260505231629 11 225 8.0 9.7 0.03 0.03 0.03 89 1014.4
20260505230604 11 247 9.7 14.5 0.03 0.03 0.03 90 1014.3
20260505225629 11 202 8.0 9.7 0.03 0.03 0.03 90 1014.3
20260505224605 11 247 4.8 9.7 0.03 0.03 0.03 90 1014.3
20260505223629 11 270 6.4 9.7 0.03 0.03 0.03 89 1014.2
20260505222605 11 247 6.4 14.5 0.03 0.03 0.03 89 1014.2
20260505221628 12 270 6.4 9.7 0.00 0.00 0.00 89 1014.6
20260505220604 12 247 9.7 12.9 0.00 0.00 0.00 87 1014.5